Overview Statistics Trail Chart Weather Telemetry Raw packets
 

This is the latest recevied weather packets stored in our database for station/object NL3D. If no packets are shown the sender has not sent any weather packets the latest 10 day(s).

<< 45 46 47 48 49 50 51 >>
Time Temp. Humidity Pressure Rain* Wind** Luminosity Snow
1777394222 2.78° C 94% 1009.6 hPa 0 mm - 91 W/m² -
1777393917 2.22° C 95% 1009.6 hPa 0 mm - 85 W/m² -
1777393617 2.22° C 95% 1009.6 hPa 0 mm - 55 W/m² -
1777393312 2.22° C 95% 1009.5 hPa 0.51 mm - 44 W/m² -
1777393010 2.22° C 95% 1009.6 hPa 0.51 mm - 44 W/m² -
1777392705 2.22° C 95% 1009.5 hPa 0 mm - 40 W/m² -
1777392402 2.22° C 95% 1009.3 hPa 0.51 mm - 35 W/m² -
1777392097 2.22° C 95% 1009.2 hPa 0.51 mm - 27 W/m² -
1777391792 2.22° C 95% 1009.2 hPa 0 mm - 21 W/m² -
1777391488 2.22° C 95% 1009.4 hPa 0.51 mm - 19 W/m² -
1777391185 2.22° C 95% 1009.2 hPa 0.51 mm - 17 W/m² -
1777390881 2.78° C 94% 1009.1 hPa 0 mm - 17 W/m² -
1777390578 2.78° C 94% 1009 hPa 0.51 mm - 12 W/m² -
1777390275 2.78° C 95% 1009.2 hPa 0.51 mm - 10 W/m² -
1777389970 2.78° C 95% 1008.9 hPa 0 mm - 8 W/m² -
1777389667 2.78° C 95% 1008.8 hPa 0 mm - 10 W/m² -
1777389363 2.78° C 95% 1009 hPa 0.51 mm - 12 W/m² -
1777389062 2.78° C 95% 1008.9 hPa 0.51 mm - 12 W/m² -
1777388759 2.78° C 95% 1008.8 hPa 0 mm - 9 W/m² -
1777388456 2.78° C 95% 1008.6 hPa 0 mm - 8 W/m² -
1777388155 2.78° C 94% 1008.7 hPa 0.51 mm - 7 W/m² -
1777387851 2.78° C 94% 1008.7 hPa 1.27 mm - 6 W/m² -
1777387548 2.78° C 93% 1008.6 hPa 0.51 mm - 5 W/m² -
1777387244 2.78° C 93% 1008.3 hPa 0 mm - 3 W/m² -
1777386939 3.33° C 92% 1008.3 hPa 0 mm - 3 W/m² -

* Rain latest hour (hover to see other rain measurements)
** Current wind speed in m/s (hover to see current wind gust speed)